• în Republica Moldova
  • Lista ţărilor
  • Pe 7 zile
  • Temperatura apei
  • Hartă satelitară
  • Meteo pe hartă
  • Widget-uri
  • user-avatar
    Intrare

    Meteo pe oră la Newcastle

    Astăzi, 25 Iulie, Marţi

    Timp Temperatura Precipitaţii Vânt Presiune Umiditate
    00:00 +9°C° 0 mm 3 m/s 765 mmHg 66%
    01:00 +9°C° 0 mm 3 m/s 765 mmHg 69%
    02:00 +8°C° 0 mm 3 m/s 765 mmHg 71%
    03:00 +8°C° 0 mm 3 m/s 765 mmHg 73%
    04:00 +7°C° 0 mm 3 m/s 765 mmHg 77%
    05:00 +7°C° 0 mm 3 m/s 766 mmHg 77%
    06:00 +6°C° 0 mm 4 m/s 766 mmHg 78%
    07:00 +6°C° 0 mm 4 m/s 766 mmHg 79%
    08:00 +10°C° 0 mm 4 m/s 766 mmHg 70%
    09:00 +12°C° 0 mm 4 m/s 766 mmHg 61%
    10:00 +15°C° 0 mm 4 m/s 766 mmHg 50%
    11:00 +17°C° 0 mm 4 m/s 766 mmHg 46%
    12:00 +19°C° 0 mm 3 m/s 765 mmHg 42%
    13:00 +20°C° 0 mm 3 m/s 765 mmHg 38%
    14:00 +20°C° 0 mm 3 m/s 764 mmHg 41%
    15:00 +20°C° 0 mm 2 m/s 764 mmHg 44%
    16:00 +19°C° 0 mm 2 m/s 764 mmHg 48%
    17:00 +17°C° 0 mm 2 m/s 764 mmHg 53%
    18:00 +14°C° 0 mm 3 m/s 764 mmHg 58%
    19:00 +12°C° 0 mm 3 m/s 764 mmHg 62%
    20:00 +12°C° 0 mm 3 m/s 764 mmHg 62%
    21:00 +12°C° 0 mm 4 m/s 764 mmHg 62%
    22:00 +12°C° 0 mm 4 m/s 764 mmHg 61%
    23:00 +12°C° 0 mm 4 m/s 763 mmHg 61%

    Mâine, 26 Iulie, Miercuri

    Timp Temperatura Precipitaţii Vânt Presiune Umiditate
    00:00 +13°C° 0 mm 5 m/s 763 mmHg 60%
    01:00 +13°C° 0 mm 5 m/s 763 mmHg 59%
    02:00 +13°C° 0 mm 6 m/s 763 mmHg 58%
    03:00 +13°C° 0 mm 6 m/s 763 mmHg 57%
    04:00 +13°C° 0 mm 6 m/s 762 mmHg 56%
    05:00 +13°C° 0 mm 6 m/s 762 mmHg 55%
    06:00 +13°C° 0 mm 6 m/s 762 mmHg 54%
    07:00 +12°C° 0 mm 7 m/s 762 mmHg 54%
    08:00 +15°C° 0 mm 7 m/s 762 mmHg 51%
    09:00 +17°C° 0 mm 7 m/s 762 mmHg 48%
    10:00 +20°C° 0 mm 7 m/s 763 mmHg 45%
    11:00 +21°C° 0 mm 6 m/s 762 mmHg 41%
    12:00 +22°C° 0 mm 6 m/s 762 mmHg 38%
    13:00 +23°C° 0 mm 6 m/s 761 mmHg 35%
    14:00 +22°C° 0 mm 6 m/s 761 mmHg 36%
    15:00 +22°C° 0 mm 5 m/s 761 mmHg 37%
    16:00 +21°C° 0 mm 5 m/s 761 mmHg 39%
    17:00 +19°C° 0 mm 5 m/s 762 mmHg 42%
    18:00 +16°C° 0 mm 5 m/s 763 mmHg 46%
    19:00 +14°C° 0 mm 6 m/s 764 mmHg 49%
    20:00 +13°C° 0 mm 6 m/s 764 mmHg 53%
    21:00 +11°C° 0 mm 6 m/s 765 mmHg 57%
    22:00 +10°C° 0 mm 6 m/s 765 mmHg 60%
    23:00 +10°C° 0 mm 5 m/s 766 mmHg 64%

    Poimâine, 27 Iulie, Joi

    Timp Temperatura Precipitaţii Vânt Presiune Umiditate
    00:00 +9°C° 0 mm 5 m/s 766 mmHg 67%
    01:00 +8°C° 0 mm 5 m/s 766 mmHg 71%
    02:00 +8°C° 0 mm 5 m/s 767 mmHg 74%
    03:00 +7°C° 0 mm 4 m/s 767 mmHg 77%
    04:00 +7°C° 0 mm 4 m/s 767 mmHg 80%
    05:00 +6°C° 0 mm 4 m/s 767 mmHg 82%
    06:00 +6°C° 0 mm 4 m/s 767 mmHg 85%
    07:00 +7°C° 0 mm 3 m/s 768 mmHg 87%
    08:00 +9°C° 0 mm 3 m/s 768 mmHg 77%
    09:00 +12°C° 0 mm 3 m/s 768 mmHg 67%
    10:00 +14°C° 0 mm 3 m/s 768 mmHg 57%
    11:00 +17°C° 0 mm 2 m/s 768 mmHg 53%
    12:00 +18°C° 0 mm 2 m/s 767 mmHg 48%
    13:00 +19°C° 0 mm 2 m/s 767 mmHg 43%
    14:00 +19°C° 0 mm 2 m/s 767 mmHg 46%
    15:00 +18°C° 0 mm 2 m/s 766 mmHg 49%
    16:00 +18°C° 0 mm 1 m/s 766 mmHg 51%
    17:00 +15°C° 0 mm 1 m/s 766 mmHg 60%
    18:00 +13°C° 0 mm 1 m/s 767 mmHg 69%
    19:00 +10°C° 0 mm 2 m/s 767 mmHg 78%
    20:00 +10°C° 0 mm 2 m/s 767 mmHg 80%
    21:00 +10°C° 0 mm 3 m/s 767 mmHg 81%
    22:00 +10°C° 0 mm 4 m/s 767 mmHg 83%
    23:00 +10°C° 0 mm 4 m/s 767 mmHg 84%

    28 Iulie, Vineri

    Timp Temperatura Precipitaţii Vânt Presiune Umiditate
    00:00 +8°C° 0 mm 4 m/s 767 mmHg 85%
    01:00 +8°C° 0 mm 4 m/s 766 mmHg 85%
    02:00 +8°C° 0 mm 4 m/s 766 mmHg 82%
    03:00 +8°C° 0 mm 4 m/s 765 mmHg 78%
    04:00 +8°C° 0 mm 4 m/s 765 mmHg 74%
    05:00 +7°C° 0 mm 4 m/s 765 mmHg 71%
    06:00 +7°C° 0 mm 5 m/s 765 mmHg 68%
    07:00 +7°C° 0 mm 5 m/s 765 mmHg 65%
    08:00 +10°C° 0 mm 5 m/s 765 mmHg 57%
    09:00 +14°C° 0 mm 5 m/s 765 mmHg 50%
    10:00 +16°C° 0 mm 6 m/s 764 mmHg 42%
    11:00 +19°C° 0 mm 6 m/s 763 mmHg 39%
    12:00 +21°C° 0 mm 6 m/s 763 mmHg 37%
    13:00 +22°C° 0 mm 6 m/s 762 mmHg 34%
    14:00 +22°C° 0 mm 5 m/s 762 mmHg 35%
    15:00 +22°C° 0 mm 5 m/s 762 mmHg 37%
    16:00 +21°C° 0 mm 4 m/s 762 mmHg 38%
    17:00 +19°C° 0 mm 4 m/s 762 mmHg 40%
    18:00 +17°C° 0 mm 4 m/s 763 mmHg 42%
    19:00 +14°C° 0 mm 4 m/s 764 mmHg 45%
    20:00 +13°C° 0 mm 4 m/s 764 mmHg 48%
    21:00 +12°C° 0 mm 4 m/s 765 mmHg 51%
    22:00 +10°C° 0 mm 5 m/s 765 mmHg 54%
    23:00 +10°C° 0 mm 4 m/s 765 mmHg 57%

    29 Iulie, Sâmbătă

    Timp Temperatura Precipitaţii Vânt Presiune Umiditate
    00:00 +8°C° 0 mm 4 m/s 765 mmHg 60%
    01:00 +7°C° 0 mm 4 m/s 765 mmHg 63%
    02:00 +8°C° 0 mm 3 m/s 765 mmHg 64%
    03:00 +7°C° 0 mm 3 m/s 765 mmHg 66%
    04:00 +7°C° 0 mm 3 m/s 765 mmHg 67%
    05:00 +7°C° 0 mm 3 m/s 765 mmHg 67%
    06:00 +5°C° 0 mm 3 m/s 765 mmHg 66%
    07:00 +5°C° 0 mm 3 m/s 766 mmHg 66%
    08:00 +9°C° 0 mm 3 m/s 766 mmHg 57%
    09:00 +12°C° 0 mm 3 m/s 765 mmHg 48%
    10:00 +16°C° 0 mm 3 m/s 765 mmHg 39%
    11:00 +18°C° 0 mm 3 m/s 764 mmHg 35%
    12:00 +20°C° 0 mm 3 m/s 764 mmHg 31%
    13:00 +22°C° 0 mm 3 m/s 763 mmHg 27%
    14:00 +22°C° 0 mm 3 m/s 762 mmHg 31%
    15:00 +22°C° 0 mm 3 m/s 762 mmHg 36%
    16:00 +22°C° 0 mm 3 m/s 762 mmHg 40%
    17:00 +20°C° 0 mm 3 m/s 762 mmHg 44%
    18:00 +18°C° 0 mm 4 m/s 762 mmHg 49%
    19:00 +15°C° 0 mm 4 m/s 762 mmHg 53%
    20:00 +14°C° 0 mm 4 m/s 762 mmHg 54%
    21:00 +14°C° 0 mm 4 m/s 762 mmHg 55%
    22:00 +14°C° 0 mm 4 m/s 763 mmHg 56%
    23:00 +13°C° 0 mm 4 m/s 762 mmHg 56%

    30 Iulie, Duminică

    Timp Temperatura Precipitaţii Vânt Presiune Umiditate
    00:00 +13°C° 0 mm 4 m/s 762 mmHg 56%
    01:00 +13°C° 0 mm 4 m/s 762 mmHg 57%
    02:00 +13°C° 0 mm 4 m/s 762 mmHg 57%
    03:00 +13°C° 0 mm 5 m/s 762 mmHg 57%
    04:00 +13°C° 0 mm 5 m/s 761 mmHg 57%
    05:00 +13°C° 0 mm 5 m/s 762 mmHg 57%
    06:00 +13°C° 0 mm 5 m/s 762 mmHg 56%
    07:00 +13°C° 0 mm 5 m/s 762 mmHg 55%
    08:00 +16°C° 0 mm 5 m/s 762 mmHg 49%
    09:00 +20°C° 0 mm 5 m/s 762 mmHg 43%
    10:00 +22°C° 0 mm 5 m/s 762 mmHg 37%
    11:00 +25°C° 0 mm 5 m/s 761 mmHg 34%
    12:00 +26°C° 0 mm 5 m/s 761 mmHg 31%
    13:00 +27°C° 0 mm 5 m/s 760 mmHg 28%
    14:00 +26°C° 0 mm 5 m/s 760 mmHg 32%
    15:00 +25°C° 0 mm 5 m/s 760 mmHg 35%
    16:00 +25°C° 0 mm 5 m/s 760 mmHg 39%
    17:00 +22°C° 0 mm 5 m/s 760 mmHg 40%
    18:00 +21°C° 0 mm 5 m/s 761 mmHg 42%
    19:00 +20°C° 0 mm 5 m/s 761 mmHg 43%
    20:00 +19°C° 0 mm 4 m/s 762 mmHg 44%
    21:00 +19°C° 0 mm 4 m/s 762 mmHg 45%
    22:00 +19°C° 0 mm 3 m/s 762 mmHg 46%
    23:00 +18°C° 0 mm 3 m/s 762 mmHg 50%
    Arată mai mult